Content
SEND FEEDBACK

Daily
Averages
Monthly
Summary
Canada

DELTA, BRITISH COLUMBIA


Home > North America > Canada > British Columbia
Elevation: 30 feet     Latitude: 49 10N     Longitude: 123 10W

WEATHER
 
SELECT A DAY
Number of Records: 249,809;   Date Range: 5/15/97 - 9/15/14
 
SHARE

PRINT THIS DATA

[ ← Previous Day ]
WEATHER ALMANAC - FEBRUARY 5, 2013
[ Next Day → ]
[ °C ]   °F
Weather ElementAverageHighLow
Temperature45.7 °F48.2 °F (1:55 pm)41 °F (12:55 am)
Dewpoint40.7 °F42.8 °F (1:35 pm)39.2 °F (4:15 am)
Humidity82.7 %100 % (12:55 am)76 % (4:15 am)
Barometer29.79 in29.86 in (11:15 pm)29.73 in (4:35 pm)
Wind Speed7.6 mph12.7 mph (2:55 am)
Wind Gust21.9 mph (7:55 am)
Weather ElementAverage
Visibility9.7 mi
Wind DirectionSSE (161.3 °)

Weather ElementTotal
Precipitation---
Heating Degree Days20.4 (Base 65)
Averaged from 64 records on February 5, 2013
WEATHER CONDITIONS BREAKOUT
WIND DIRECTION BREAKOUT
WEATHER BY HOUR - FEBRUARY 5, 2013
[ °C ]   °F
Local TimeTemperatureDewpointHumidityBarometerVisibilityWind DirectionWind SpeedGust SpeedPrecipitationEventsConditions
12:35 AM42.8 °F41.0 °F93 %29.80 in9.0 miCalmScattered Clouds
12:55 AM41.0 °F41.0 °F100 %29.80 in8.0 miCalmMostly Cloudy
1:15 AM41.0 °F41.0 °F100 %29.78 in8.0 miNorthScattered Clouds
1:35 AM42.8 °F41.0 °F93 %29.78 in10.0 miCalmMostly Cloudy
1:55 AM46.4 °F41.0 °F81 %29.78 in10.0 miSSW (210°)8.1 mphOvercast
2:15 AM46.4 °F41.0 °F81 %29.78 in10.0 miSouth (170°)8.1 mphOvercast
2:55 AM44.6 °F41.0 °F87 %29.80 in10.0 miSSW (210°)12.7 mphMostly Cloudy
3:15 AM46.4 °F41.0 °F81 %29.80 in10.0 miSSW (210°)11.5 mphScattered Clouds
3:35 AM46.4 °F41.0 °F81 %29.79 in10.0 miSouth (190°)10.4 mphMostly Cloudy
3:55 AM46.4 °F41.0 °F81 %29.79 in9.0 miSouth (190°)9.2 mphRainLight Rain
4:15 AM46.4 °F39.2 °F76 %29.78 in10.0 miSouth (170°)5.8 mphRainLight Rain
4:35 AM46.4 °F41.0 °F81 %29.77 in9.0 miSouth (170°)9.2 mphRainLight Rain
4:55 AM46.4 °F41.0 °F81 %29.77 in10.0 miSouth (180°)10.4 mph16.1 mphClear
5:15 AM46.4 °F41.0 °F81 %29.78 in10.0 miSouth (190°)10.4 mph17.3 mphPartly Cloudy
5:55 AM46.4 °F41.0 °F81 %29.77 in10.0 miSouth (180°)9.2 mphScattered Clouds
6:15 AM46.4 °F39.2 °F76 %29.76 in10.0 miSouth (180°)9.2 mph16.1 mphScattered Clouds
6:35 AM46.4 °F39.2 °F76 %29.76 in10.0 miSouth (180°)10.4 mph20.7 mphScattered Clouds
6:55 AM46.4 °F39.2 °F76 %29.77 in10.0 miSouth (190°)10.4 mph19.6 mphMostly Cloudy
7:15 AM46.4 °F39.2 °F76 %29.77 in10.0 miSouth (190°)12.7 mph19.6 mphMostly Cloudy
7:35 AM46.4 °F39.2 °F76 %29.78 in10.0 miSouth (190°)12.7 mph20.7 mphOvercast
7:55 AM46.4 °F39.2 °F76 %29.78 in10.0 miSouth (180°)12.7 mph21.9 mphMostly Cloudy
8:15 AM46.4 °F39.2 °F76 %29.79 in10.0 miSouth (180°)11.5 mph17.3 mphMostly Cloudy
8:55 AM46.4 °F41.0 °F81 %29.80 in10.0 miSSW (200°)12.7 mph19.6 mphScattered Clouds
9:15 AM46.4 °F41.0 °F81 %29.81 in10.0 miSouth (190°)8.1 mph17.3 mphOvercast
9:35 AM46.4 °F41.0 °F81 %29.81 in10.0 miSouth (180°)4.6 mphMostly Cloudy
9:55 AM46.4 °F41.0 °F81 %29.80 in10.0 miSouth (180°)8.1 mphScattered Clouds
10:15 AM46.4 °F41.0 °F81 %29.80 in10.0 miSouth (180°)6.9 mphClear
10:35 AM46.4 °F41.0 °F81 %29.80 in10.0 miSouth (170°)5.8 mphClear
11:15 AM46.4 °F41.0 °F81 %29.80 in10.0 miSouth (170°)6.9 mphPartly Cloudy
11:35 AM46.4 °F41.0 °F81 %29.80 in10.0 miSouth (180°)6.9 mphMostly Cloudy
11:55 AM46.4 °F41.0 °F81 %29.80 in10.0 miSouth (170°)5.8 mphOvercast
12:15 PM46.4 °F41.0 °F81 %29.79 in10.0 miSSE (160°)4.6 mphOvercast
12:35 PM46.4 °F41.0 °F81 %29.78 in10.0 miSSE (160°)4.6 mphOvercast
12:55 PM46.4 °F41.0 °F81 %29.78 in10.0 miSouth (190°)9.2 mphOvercast
1:15 PM46.4 °F41.0 °F81 %29.78 in10.0 miSSW (200°)10.4 mph18.4 mphMostly Cloudy
1:35 PM46.4 °F42.8 °F87 %29.76 in10.0 miSouth (190°)11.5 mph17.3 mphScattered Clouds
1:55 PM48.2 °F42.8 °F82 %29.75 in10.0 miSouth (180°)5.8 mphPartly Cloudy
2:15 PM48.2 °F41.0 °F76 %29.75 in10.0 miSouth (180°)9.2 mphPartly Cloudy
2:35 PM48.2 °F41.0 °F76 %29.75 in10.0 miSouth (170°)4.6 mphClear
3:15 PM48.2 °F41.0 °F76 %29.76 in10.0 miSouth (190°)5.8 mphPartly Cloudy
3:35 PM48.2 °F41.0 °F76 %29.76 in10.0 miSouth (180°)8.1 mphClear
3:55 PM48.2 °F41.0 °F76 %29.75 in10.0 miSouth (180°)5.8 mphPartly Cloudy
4:15 PM48.2 °F41.0 °F76 %29.75 in10.0 miSouth (180°)8.1 mphPartly Cloudy
4:35 PM48.2 °F41.0 °F76 %29.73 in10.0 miSouth (180°)10.4 mph18.4 mphScattered Clouds
4:55 PM48.2 °F41.0 °F76 %29.74 in10.0 miSouth (190°)11.5 mph20.7 mphPartly Cloudy
5:15 PM46.4 °F41.0 °F81 %29.75 in10.0 miSouth (180°)11.5 mph19.6 mphRainLight Rain
5:55 PM46.4 °F42.8 °F87 %29.75 in10.0 miSouth (170°)6.9 mphRainLight Rain
6:15 PM46.4 °F42.8 °F87 %29.76 in10.0 miSSW (200°)9.2 mphClear
6:35 PM46.4 °F42.8 °F87 %29.77 in8.0 miSSW (210°)10.4 mphRainLight Rain
7:15 PM44.6 °F39.2 °F81 %29.78 in10.0 miSouth (180°)3.5 mphScattered Clouds
7:35 PM42.8 °F39.2 °F87 %29.78 in10.0 miSSW (200°)5.8 mphScattered Clouds
7:55 PM44.6 °F39.2 °F81 %29.78 in10.0 miSW (220°)11.5 mph17.3 mphRainLight Rain
8:15 PM44.6 °F39.2 °F81 %29.78 in10.0 miSouth (170°)8.1 mphPartly Cloudy
8:35 PM44.6 °F39.2 °F81 %29.79 in10.0 miSouth (180°)6.9 mphClear
8:55 PM44.6 °F41.0 °F87 %29.80 in10.0 miSE (140°)3.5 mphClear
9:15 PM44.6 °F39.2 °F81 %29.82 in10.0 miCalmScattered Clouds
9:35 PM44.6 °F41.0 °F87 %29.83 in10.0 miCalmMostly Cloudy
9:55 PM42.8 °F41.0 °F93 %29.83 in10.0 miCalmMostly Cloudy
10:15 PM44.6 °F41.0 °F87 %29.84 in10.0 miSSW (200°)6.9 mphOvercast
10:35 PM42.8 °F41.0 °F93 %29.85 in3.0 miNorthRainLight Rain
10:55 PM42.8 °F41.0 °F93 %29.85 in4.0 miSW (220°)6.9 mphOvercast
11:15 PM42.8 °F41.0 °F93 %29.86 in10.0 miSouth (180°)5.8 mphMostly Cloudy
11:35 PM42.8 °F41.0 °F93 %29.86 in10.0 miSouth (170°)4.6 mphMostly Cloudy
11:55 PM42.8 °F41.0 °F93 %29.86 in10.0 miSouth (190°)8.1 mphScattered Clouds
Hourly data recorded from CZBB, located miles away from Delta, British Columbia







STORIES FROM OUR PARTNERS